This demonstration page uses our WeatherBlox Daily Observations layout. Learn more.

Left ArrowRight Arrow

Hourly Observations for May 17, 2020

Temp ( °F °C ) Dew Point ( °F °C ) Humidity (%) Winds ( mph kmh ) Pressure ( in mb ) Visibility ( mi km ) Precip ( " mm )
12:51 am 00:51 Clear 70 21.1 32 0 25 25 NW 5 7 29.73 1007 10 16.0934 0 0
1:51 am 01:51 Clear 68 20 31 -0.6 25 25 NNW 5 7 29.73 1007 10 16.0934 0 0
2:51 am 02:51 Clear 62 16.7 30 -1.1 30 30 SSE 5 7 29.75 1008 10 16.0934 0 0
3:51 am 03:51 Clear 61 16.1 30 -1.1 31 31 E 6 9 29.77 1008 10 16.0934 0 0
4:51 am 04:51 Clear 61 16.1 30 -1.1 31 31 S 7 11 29.79 1009 10 16.0934 0 0
5:51 am 05:51 Sunny 60 15.6 30 -1.1 32 32 Calm 29.82 1010 10 16.0934 0 0
6:51 am 06:51 Sunny 67 19.4 32 0 27 27 SE 6 9 29.83 1010 10 16.0934 0 0
7:51 am 07:51 Sunny 73 22.8 34 1.1 24 24 ESE 3 6 29.84 1011 10 16.0934 0 0
8:51 am 08:51 Sunny 79 26.1 34 1.1 20 20 VRB 3 6 29.83 1010 10 16.0934 0 0
9:51 am 09:51 Sunny 85 29.4 34 1.1 16 16 VRB 5 7 29.82 1010 10 16.0934 0 0
10:51 am 10:51 Sunny 89 31.7 34 1.1 14 14 VRB 3 6 29.81 1010 10 16.0934 0 0
11:51 am 11:51 Sunny 92 33.3 34 1.1 13 13 VRB 3 6 29.79 1009 10 16.0934 0 0
12:51 pm 12:51 Sunny 94 34.4 34 1.1 12 12 NE 9 15 29.77 1008 10 16.0934 0 0
1:51 pm 13:51 Sunny 97 36.1 33 0.6 10 10 VRB 3 6 29.75 1007 10 16.0934 0 0
2:51 pm 14:51 Sunny 97 36.1 32 0 10 10 W 10 17 29.73 1007 10 16.0934 0 0
3:51 pm 15:51 Sunny 96 35.6 32 0 10 10 WSW 8 13 29.72 1006 10 16.0934 0 0
4:51 pm 16:51 Sunny 97 36.1 29 -1.7 9 9 WNW 6 9 29.71 1006 10 16.0934 0 0
5:51 pm 17:51 Sunny 96 35.6 27 -2.8 8 8 WNW 14 22 29.7 1006 10 16.0934 0 0
6:51 pm 18:51 Sunny 92 33.3 29 -1.7 10 10 NW 14 22 29.71 1006 10 16.0934 0 0
7:51 pm 19:51 Clear 87 30.6 30 -1.1 13 13 NW 10 17 29.73 1007 10 16.0934 0 0
8:51 pm 20:51 Clear 83 28.3 31 -0.6 15 15 NW 9 15 29.75 1007 10 16.0934 0 0
9:51 pm 21:51 Clear 78 25.6 32 0 19 19 WNW 10 17 29.76 1008 10 16.0934 0 0
10:51 pm 22:51 Clear 75 23.9 32 0 21 21 NW 9 15 29.77 1008 10 16.0934 0 0
11:51 pm 23:51 Clear 76 24.4 32 0 20 20 NNW 10 17 29.77 1008 10 16.0934 0 0

Powered by AerisWeather